[TLELIST] Archives

 

[TLELIST] Current TLEs

November 25th 2025 PDT

0 HST 1 20580U 90037B 25328.89459890 .00008828 00000-0 30886-3 0 9990 2 20580 28.4701 33.9153 0001962 52.6598 307.4176 15.27692219757265 0 ISS (ZARYA) 1 25544U 98067A 25328.86728725 .00014562 00000-0 27142-3 0 9992 2 25544 51.6314 230.9455 0003896 164.8499 195.2607 15.49056620540082 0 CXO 1 25867U 99040B 25330.74983849 .00000762 00000-0 00000-0 0 9990 2 25867 52.7007 123.1580 8166606 310.7173 0.1897 0.37798395 16559 ...Continue Reading

[TLELIST] Current TLEs

November 24th 2025 PDT

0 HST 1 20580U 90037B 25327.26141731 .00008209 00000-0 28690-3 0 9995 2 20580 28.4698 45.0250 0001849 35.9862 324.0857 15.27666040757011 0 ISS (ZARYA) 1 25544U 98067A 25328.09312817 .00014217 00000-0 26540-3 0 9996 2 25544 51.6317 234.7759 0003932 161.8932 198.2197 15.49034016539961 0 CXO 1 25867U 99040B 25330.74983848 .00000762 00000-0 00000+0 0 9998 2 25867 52.7007 123.1580 8166606 310.7173 0.1897 0.37798395 16559 ...Continue Reading

[TLELIST] Current TLEs

November 23rd 2025 PDT

0 HST 1 20580U 90037B 25326.34682382 .00008231 00000-0 28782-3 0 9992 2 20580 28.4697 51.2463 0001781 26.3664 333.7022 15.27650885756878 0 ISS (ZARYA) 1 25544U 98067A 25326.86735367 .00012972 00000-0 24319-3 0 9996 2 25544 51.6318 240.8401 0003936 156.7913 203.3253 15.49000625539779 0 CXO 1 25867U 99040B 25328.10499903 .00000710 00000-0 00000-0 0 9993 2 25867 52.6563 123.2385 8170083 310.7413 0.0806 0.37798161 16549 ...Continue Reading

[TLELIST] Current TLEs

November 22nd 2025 PDT

0 HST 1 20580U 90037B 25325.36689219 .00008339 00000-0 29185-3 0 9996 2 20580 28.4694 57.9121 0001715 15.6328 344.4320 15.27634302756724 0 ISS (ZARYA) 1 25544U 98067A 25325.83510273 .00014642 00000-0 27370-3 0 9995 2 25544 51.6324 245.9468 0003994 153.9795 206.1394 15.48969112539610 0 CXO 1 25867U 99040B 25328.10499903 .00000710 00000-0 00000+0 0 9992 2 25867 52.6563 123.2385 8170083 310.7413 0.0806 0.37798161 16549 ...Continue Reading

[TLELIST] Current TLEs

November 21st 2025 PDT

0 HST 1 20580U 90037B 25324.58293892 .00007103 00000-0 24759-3 0 9997 2 20580 28.4692 63.2448 0001667 6.7179 353.3438 15.27620494756608 0 ISS (ZARYA) 1 25544U 98067A 25324.86734765 .00014275 00000-0 26737-3 0 9999 2 25544 51.6324 250.7347 0003961 150.1460 209.9755 15.48935269539463 0 CXO 1 25867U 99040B 25328.10473416 .00000710 00000-0 00000+0 0 9993 2 25867 52.6564 123.2385 8170074 310.7413 0.0444 0.37798196 16546 ...Continue Reading

[TLELIST] Current TLEs

November 21st 2025 PDT

0 HST 1 20580U 90037B 25324.58293892 .00007103 00000-0 24759-3 0 9997 2 20580 28.4692 63.2448 0001667 6.7179 353.3438 15.27620494756608 0 ISS (ZARYA) 1 25544U 98067A 25324.86734765 .00014275 00000-0 26737-3 0 9999 2 25544 51.6324 250.7347 0003961 150.1460 209.9755 15.48935269539463 0 CXO 1 25867U 99040B 25328.10473416 .00000710 00000-0 00000+0 0 9993 2 25867 52.6564 123.2385 8170074 310.7413 0.0444 0.37798196 16546 ...Continue Reading

[TLELIST] Current TLEs

November 20th 2025 PDT

0 HST 1 20580U 90037B 25323.99496954 .00007162 00000-0 24976-3 0 9991 2 20580 28.4690 67.2438 0001614 359.6283 0.4311 15.27611976756512 0 ISS (ZARYA) 1 25544U 98067A 25324.22216551 .00014969 00000-0 28011-3 0 9994 2 25544 51.6325 253.9268 0004000 147.6792 212.4442 15.48916399539369 0 CXO 1 25867U 99040B 25322.81665439 .00000534 00000-0 00000-0 0 9998 2 25867 52.5795 123.3844 8177868 310.7722 0.0625 0.37807220 16521 ...Continue Reading

[TLELIST] Current TLEs

November 19th 2025 PDT

0 HST 1 20580U 90037B 25323.01501379 .00007556 00000-0 26403-3 0 9996 2 20580 28.4686 73.9096 0001547 347.7149 12.3408 15.27597119756369 0 ISS (ZARYA) 1 25544U 98067A 25323.19007697 .00014207 00000-0 25812-3 0 9999 2 25544 51.6333 259.0348 0004155 86.2580 273.8884 15.49812972539205 0 CXO 1 25867U 99040B 25322.81665439 .00000534 00000-0 00000-0 0 9998 2 25867 52.5795 123.3844 8177868 310.7722 0.0625 0.37807220 16521 ...Continue Reading

[TLELIST] Current TLEs

November 18th 2025 PDT

0 HST 1 20580U 90037B 25321.64305950 .00009270 00000-0 32589-3 0 9997 2 20580 28.4682 83.2418 0001440 330.0019 30.0493 15.27573676756150 0 ISS (ZARYA) 1 25544U 98067A 25321.90043552 .00014804 00000-0 26899-3 0 9995 2 25544 51.6331 265.4223 0004180 82.0364 278.1099 15.49772275539003 0 CXO 1 25867U 99040B 25322.81665439 .00000534 00000-0 00000-0 0 9998 2 25867 52.5795 123.3844 8177868 310.7722 0.0625 0.37807220 16521 ...Continue Reading

[TLELIST] Current TLEs

November 17th 2025 PDT

0 HST 1 20580U 90037B 25320.66307832 .00010146 00000-0 35759-3 0 9995 2 20580 28.4680 89.9077 0001409 316.9081 43.1403 15.27554036756008 0 ISS (ZARYA) 1 25544U 98067A 25320.35281829 .00017169 00000-0 31117-3 0 9990 2 25544 51.6328 273.0879 0004159 76.5981 283.5471 15.49717811538761 0 CXO 1 25867U 99040B 25322.81665439 .00000534 00000-0 00000-0 0 9998 2 25867 52.5795 123.3844 8177868 310.7722 0.0625 0.37807220 16521 ...Continue Reading
  • This mailing list is a public mailing list - anyone may join or leave, at any time.
  • This mailing list is announce-only.

International Space Station (ISS) / Hubble Space Telescope (HST) / Chandra X-Ray Observatory Orbital Data via EMAIL

Privacy Policy:

Private list